Погода в Ефремковской

Россия / Архангельская область     61°20′10″N   42°05′17″E
темп.,
°C
ветер,
м/с
пор.,
м/с
влажн.,
%
обл.,
%
осадки,
мм/ч
давл.,
гПа
погр.,
м
5 августа, чт
чт500:00+9зюз39740 0.0 1014164
03:00+8з27772 0.0 1015119
06:00+11з25715 0.0 1017138
09:00+17з23505 0.0 1017694
12:00+20з343675 0.0 10172475
15:00+19с344199 0.0 10171045
18:00+18зюз1155100 0.0 101848
21:00+14с1161100 0.0 101811
6 августа, пт
пт600:00+13св116778 0.0 101915
03:00+12св2270100 0.0 101951
06:00+12св1571100 0.0 1019162
09:00+15ссв2360100 0.0 1019391
12:00+15ссв4772100 0.3 1019720
15:00+13ссв41091100 1.2 1019470
18:00+12св41096100 2.5 1020443
21:00+11св31096100 3.4 1020406
7 августа, сб
сб700:00+11св21096100 0.2 1020312
03:00+11св3109597 0.6 1020340
06:00+11всв3119294 0.0 1021418
09:00+15в4866100 0.0 1021640
12:00+19в474777 0.0 10201322
15:00+21в464385 0.0 10201783
18:00+19в3859100 0.0 1018862
21:00+16в31169100 0.0 1018431
8 августа, вс
вс800:00+13в31289100 0.8 1018516
03:00+12в41295100 1.6 1018531
06:00+12в51498100 8.6 1017723
09:00+12в51298100 11.8 1016679
12:00+13в41097100 0.0 1016683
15:00+14в41096100 0.3 1016510
18:00+14всв41099100 5.1 1016391
21:00+14в3899100 11.3 1015333
9 августа, пн
пн900:00+14в27100100 5.9 1015324
03:00+13в2410093 6.1 1015143
06:00+14св1299100 0.0 101597
09:00+16с019690 0.1 1015264
12:00+17сз239086 0.3 1016514
15:00+18ссз238183 0.5 1017684
18:00+16с248755 0.1 1018324
21:00+13с249874 0.1 1019132